Showing default

ALOUETTE 2, 1804

Orbit data source: Space-Track

ALOUETTE 2, 1804 is a payload satellite owned by DRTE (CA) in LEO that was launched on Mon, 29 Nov 1965 UTC via a THOR SLV-2 AGENA B launch vehicle from the Air Force Western Test Range (AFWTR). Payload-class satellites include a variety of spacecraft equipped with specific instruments for various scientific and technological missions. These include communications satellites like Starlink; space stations such as the ISS; scientific satellites like the Hubble; Earth observation satellites from companies like Planet Labs, Umbra, and HawkEye 360; GPS; miniature CubeSats for education and research; and military/defense satellites.

Loading next visibility...
Identifier
1804, 1965-098A
Orbit
LEO
Country
Flag of CACA
Related business
Manufacturer
DEHAVT/RCAV
Mission
Spacecraft
Bus & Motor
ALOUETTE, Unknown motor
Mass
145 kg wet, 145 kg dry
Launch date (UTC)
1965-11-29 (60 years ago)
Launch vehicle
THOR SLV-2 AGENA B
Launch site
Air Force Western Test Range (AFWTR)
Object type
Payload
Rocket body
Debris
Shape & HBR
Unknown
Radar Cross Section
Medium (>0.1 m² and <1 m²)

Expand to show TLE details & history
Last TLE update: 1 day ago

TLE from 1 day ago
0 ALOUETTE 2
1 01804U 65098A   25310.79040592  .00000533  00000-0  17675-3 0  9998
2 01804  79.7974 105.8449 1330696 323.4037  28.2853 12.28045609651972
Epoch: 2025-11-06T18:58Z
TLE epoch observation values (Epoch: 2025-11-06T18:58:11.071Z)
Latitude
Longitude
135.0551°
Altitude
668.321 km
Speed
7.934 km/s
True Right ascension
07h 03m 22s
True Declination
0° 00' 00"
Sunlit
Object was in partial shadow at epoch
Visualization orbit readout
Latitude
Unknown
Longitude
Unknown
Altitude
Unknown
Speed
Unknown
Apparent Right ascension
Unknown
Apparent Declination
Unknown
Sunlit
N/A
Visualization observer readout
Local Sidereal Time
15:49:31
Azimuth
Unknown
Elevation
Unknown
Doppler factor
Unknown
Orbital elements
Apogee altitude
2,610.788 km
Perigee altitude
499.439 km
Semi-major axis
7,933.25 km
Eccentricity
0.13307
Inclination
79.7974°
RAAN
105.8449°
Arg. of periapsis
323.4037°
True anomaly
36.70992°
Mean anomaly
28.2853°
Eccentric anomaly
32.3669°
Mean motion
3.07161 °/min
Orbital period
117.2 mins
BSTAR
0.00017675
Loading maneuver chart data...
Computing Atmospheric mass density...
Loading historical data...
Loading historical data...
Loading historical data...
Loading historical data...
Loading historical data...
Loading historical data...
Loading historical data...

Documentation

Showing up to 5 results
|